When you browse on this site, cookies collect data to enhance your experience and personalize the content and advertising you see.
Visit our Privacy Policy to learn more. By continuing to use the site, you agree to this use of cookies and data.
  • In Romania
  • List of Countries
  • For 7 days
  • Water Temperature
  • Satellite Maps
  • Weather Map
  • Weather Widgets
  • user-avatar
    Login

    Hourly Weather San Miguel de Tucumán

    Today, 18 June, Tuesday

    Time Temperature Precipitation Wind Pressure Humidity
    00:00 +7°C° 0 mm 2 mps 719 mmHg 68%
    01:00 +6°C° 0 mm 2 mps 719 mmHg 70%
    02:00 +6°C° 0 mm 2 mps 719 mmHg 71%
    03:00 +6°C° 0 mm 2 mps 719 mmHg 71%
    04:00 +6°C° 0 mm 2 mps 719 mmHg 71%
    05:00 +5°C° 0 mm 2 mps 720 mmHg 72%
    06:00 +7°C° 0 mm 1 mps 720 mmHg 69%
    07:00 +8°C° 0 mm 1 mps 721 mmHg 67%
    08:00 +9°C° 0 mm 1 mps 721 mmHg 65%
    09:00 +11°C° 0 mm 1 mps 722 mmHg 56%
    10:00 +14°C° 0 mm 1 mps 722 mmHg 46%
    11:00 +16°C° 0 mm 2 mps 722 mmHg 37%
    12:00 +17°C° 0 mm 2 mps 722 mmHg 33%
    13:00 +18°C° 0 mm 2 mps 721 mmHg 30%
    14:00 +19°C° 0 mm 2 mps 720 mmHg 27%
    15:00 +18°C° 0 mm 2 mps 720 mmHg 31%
    16:00 +16°C° 0 mm 1 mps 720 mmHg 35%
    17:00 +15°C° 0 mm 1 mps 720 mmHg 39%
    18:00 +14°C° 0 mm 1 mps 721 mmHg 42%
    19:00 +12°C° 0 mm 1 mps 722 mmHg 44%
    20:00 +10°C° 0 mm 1 mps 722 mmHg 47%
    21:00 +10°C° 0 mm 1 mps 723 mmHg 47%
    22:00 +10°C° 0 mm 1 mps 723 mmHg 47%
    23:00 +9°C° 0 mm 1 mps 724 mmHg 47%

    Tomorrow, 19 June, Wednesday

    Time Temperature Precipitation Wind Pressure Humidity
    00:00 +8°C° 0 mm 2 mps 724 mmHg 45%
    01:00 +8°C° 0 mm 2 mps 723 mmHg 44%
    02:00 +8°C° 0 mm 2 mps 723 mmHg 42%
    03:00 +8°C° 0 mm 2 mps 723 mmHg 41%
    04:00 +8°C° 0 mm 2 mps 723 mmHg 40%
    05:00 +8°C° 0 mm 2 mps 723 mmHg 39%
    06:00 +10°C° 0 mm 1 mps 724 mmHg 38%
    07:00 +10°C° 0 mm 1 mps 724 mmHg 37%
    08:00 +11°C° 0 mm 1 mps 725 mmHg 36%
    09:00 +14°C° 0 mm 1 mps 725 mmHg 32%
    10:00 +18°C° 0 mm 1 mps 725 mmHg 27%
    11:00 +21°C° 0 mm 1 mps 726 mmHg 23%
    12:00 +21°C° 0 mm 2 mps 725 mmHg 23%
    13:00 +23°C° 0 mm 2 mps 725 mmHg 23%
    14:00 +24°C° 0 mm 2 mps 724 mmHg 22%
    15:00 +21°C° 0 mm 2 mps 724 mmHg 28%
    16:00 +19°C° 0 mm 2 mps 723 mmHg 33%
    17:00 +19°C° 0 mm 1 mps 723 mmHg 39%
    18:00 +16°C° 0 mm 1 mps 723 mmHg 42%
    19:00 +14°C° 0 mm 1 mps 724 mmHg 45%
    20:00 +12°C° 0 mm 1 mps 724 mmHg 49%
    21:00 +12°C° 0 mm 1 mps 724 mmHg 49%
    22:00 +12°C° 0 mm 1 mps 724 mmHg 50%
    23:00 +11°C° 0 mm 1 mps 724 mmHg 51%

    Day after tomorrow, 20 June, Thursday

    Time Temperature Precipitation Wind Pressure Humidity
    00:00 +11°C° 0 mm 1 mps 724 mmHg 52%
    01:00 +11°C° 0 mm 1 mps 724 mmHg 52%
    02:00 +11°C° 0 mm 1 mps 723 mmHg 53%
    03:00 +10°C° 0 mm 1 mps 723 mmHg 53%
    04:00 +10°C° 0 mm 1 mps 723 mmHg 53%
    05:00 +10°C° 0 mm 1 mps 723 mmHg 53%
    06:00 +10°C° 0 mm 1 mps 723 mmHg 52%
    07:00 +11°C° 0 mm 1 mps 723 mmHg 51%
    08:00 +11°C° 0 mm 1 mps 724 mmHg 50%
    09:00 +14°C° 0 mm 1 mps 724 mmHg 45%
    10:00 +18°C° 0 mm 1 mps 724 mmHg 39%
    11:00 +21°C° 0 mm 1 mps 724 mmHg 33%
    12:00 +21°C° 0 mm 2 mps 723 mmHg 32%
    13:00 +23°C° 0 mm 2 mps 722 mmHg 31%
    14:00 +24°C° 0 mm 2 mps 721 mmHg 30%
    15:00 +23°C° 0 mm 2 mps 721 mmHg 36%
    16:00 +22°C° 0 mm 1 mps 720 mmHg 42%
    17:00 +20°C° 0 mm 1 mps 720 mmHg 47%
    18:00 +18°C° 0 mm 1 mps 720 mmHg 51%
    19:00 +16°C° 0 mm 1 mps 720 mmHg 55%
    20:00 +14°C° 0 mm 1 mps 720 mmHg 59%
    21:00 +14°C° 0 mm 1 mps 720 mmHg 62%
    22:00 +14°C° 0 mm 1 mps 720 mmHg 64%
    23:00 +13°C° 0 mm 1 mps 720 mmHg 67%

    21 June, Friday

    Time Temperature Precipitation Wind Pressure Humidity
    00:00 +13°C° 0 mm 1 mps 719 mmHg 69%
    01:00 +13°C° 0 mm 1 mps 719 mmHg 71%
    02:00 +12°C° 0 mm 1 mps 718 mmHg 73%
    03:00 +12°C° 0 mm 1 mps 718 mmHg 73%
    04:00 +12°C° 0 mm 1 mps 718 mmHg 73%
    05:00 +11°C° 0 mm 1 mps 718 mmHg 73%
    06:00 +12°C° 0 mm 1 mps 718 mmHg 71%
    07:00 +12°C° 0 mm 1 mps 718 mmHg 69%
    08:00 +13°C° 0 mm 1 mps 718 mmHg 67%
    09:00 +15°C° 0 mm 1 mps 719 mmHg 61%
    10:00 +19°C° 0 mm 1 mps 719 mmHg 55%
    11:00 +22°C° 0 mm 1 mps 719 mmHg 48%
    12:00 +23°C° 0 mm 1 mps 718 mmHg 47%
    13:00 +24°C° 0 mm 1 mps 718 mmHg 45%
    14:00 +25°C° 0 mm 1 mps 717 mmHg 44%
    15:00 +24°C° 0 mm 1 mps 717 mmHg 49%
    16:00 +22°C° 0 mm 1 mps 718 mmHg 54%
    17:00 +21°C° 0 mm 1 mps 718 mmHg 58%
    18:00 +20°C° 0 mm 1 mps 718 mmHg 63%
    19:00 +19°C° 0 mm 1 mps 718 mmHg 67%
    20:00 +16°C° 0 mm 1 mps 719 mmHg 71%
    21:00 +16°C° 0 mm 1 mps 719 mmHg 73%
    22:00 +16°C° 0 mm 1 mps 719 mmHg 74%
    23:00 +16°C° 0 mm 1 mps 719 mmHg 76%

    22 June, Saturday

    Time Temperature Precipitation Wind Pressure Humidity
    00:00 +15°C° 0 mm 1 mps 719 mmHg 76%
    01:00 +15°C° 0 mm 1 mps 719 mmHg 76%
    02:00 +15°C° 0 mm 1 mps 719 mmHg 76%
    03:00 +15°C° 0 mm 1 mps 719 mmHg 77%
    04:00 +15°C° 0 mm 1 mps 719 mmHg 77%
    05:00 +15°C° 0 mm 1 mps 719 mmHg 78%
    06:00 +15°C° 0 mm 1 mps 719 mmHg 77%
    07:00 +16°C° 0 mm 1 mps 720 mmHg 75%
    08:00 +16°C° 0 mm 1 mps 720 mmHg 74%
    09:00 +20°C° 0 mm 1 mps 720 mmHg 68%
    10:00 +22°C° 0 mm 1 mps 720 mmHg 61%
    11:00 +25°C° 0 mm 1 mps 721 mmHg 54%
    12:00 +26°C° 0 mm 1 mps 720 mmHg 53%
    13:00 +27°C° 0 mm 1 mps 720 mmHg 51%
    14:00 +27°C° 0 mm 1 mps 719 mmHg 49%
    15:00 +26°C° 0 mm 1 mps 719 mmHg 54%
    16:00 +25°C° 0 mm 1 mps 719 mmHg 59%
    17:00 +24°C° 0 mm 1 mps 719 mmHg 64%
    18:00 +23°C° 0 mm 1 mps 719 mmHg 69%
    19:00 +21°C° 0 mm 1 mps 719 mmHg 74%
    20:00 +20°C° 0 mm 1 mps 719 mmHg 78%
    21:00 +19°C° 0 mm 1 mps 719 mmHg 79%
    22:00 +19°C° 0 mm 1 mps 719 mmHg 81%
    23:00 +19°C° 0 mm 1 mps 719 mmHg 82%

    23 June, Sunday

    Time Temperature Precipitation Wind Pressure Humidity
    00:00 +19°C° 0 mm 1 mps 719 mmHg 82%
    01:00 +18°C° 0 mm 1 mps 719 mmHg 83%
    02:00 +18°C° 0 mm 1 mps 718 mmHg 84%
    03:00 +18°C° 0 mm 1 mps 718 mmHg 85%
    04:00 +18°C° 0 mm 1 mps 718 mmHg 85%
    05:00 +16°C° 0 mm 1 mps 717 mmHg 85%
    06:00 +18°C° 0 mm 1 mps 717 mmHg 83%
    07:00 +18°C° 0 mm 1 mps 718 mmHg 81%
    08:00 +19°C° 0 mm 1 mps 718 mmHg 79%
    09:00 +21°C° 0 mm 1 mps 717 mmHg 72%
    10:00 +23°C° 0 mm 1 mps 717 mmHg 64%
    11:00 +26°C° 0 mm 1 mps 717 mmHg 57%
    12:00 +27°C° 0 mm 1 mps 716 mmHg 54%
    13:00 +28°C° 0 mm 1 mps 715 mmHg 51%
    14:00 +30°C° 0 mm 1 mps 714 mmHg 48%
    15:00 +28°C° 0 mm 2 mps 714 mmHg 53%
    16:00 +27°C° 0 mm 2 mps 714 mmHg 57%
    17:00 +26°C° 0 mm 2 mps 713 mmHg 62%
    18:00 +24°C° 0 mm 2 mps 713 mmHg 67%
    19:00 +23°C° 0 mm 1 mps 713 mmHg 72%
    20:00 +21°C° 0 mm 1 mps 713 mmHg 77%
    21:00 +21°C° 0 mm 1 mps 713 mmHg 76%
    22:00 +21°C° 0 mm 1 mps 713 mmHg 75%
    23:00 +21°C° 0 mm 1 mps 712 mmHg 75%
    Show more